Regional Weather Roundup
Issued by NWS Northern Indiana

Home | Current Version | Previous Version | Text Only | Print | Product List | Glossary On
Versions: 1 2 3 4 5 6 7 8 9 10 11 12 13 14 15 16 17 18 19 20 21 22 23 24 25 26 27 28 29 30 31 32 33 34 35 36 37 38 39 40 41 42 43 44 45 46 47 48 49 50
834
ASUS43 KIWX 291210
RWRIWX

KIWX WEATHER ROUNDUP
NATIONAL WEATHER SERVICE NORTHERN INDIANA
800 AM EDT WED MAR 29 2017

NOTE: "FAIR" INDICATES FEW OR NO CLOUDS BELOW 12,000 FEET WITH NO
SIGNIFICANT WEATHER AND/OR OBSTRUCTIONS TO VISIBILITY.

* THESE STATIONS ARE NOT UNDER NWS QUALITY CONTROL. THEY ALSO MAY NOT
  REPORT WEATHER SUCH AS PRECIPITATION OR FOG.

INZ001>027-291300-
NORTHERN INDIANA

CITY           SKY/WX    TMP DP  RH WIND       PRES   REMARKS
GARY*          FOG       36  36 100 NE5       30.25R VSB 1/4
VALPARAISO     CLEAR     35  34  96 NE3       30.24R FOG
6HR MIN TEMP:  34; 6HR MAX TEMP:  39;

MICHIGAN CITY* CLEAR     30  30 100 CALM      30.25R FOG
LAPORTE*       CLEAR     36  34  92 E7        30.24R
6HR MIN TEMP:  34; 6HR MAX TEMP:  38;

KNOX*          CLEAR     32  28  86 CALM      30.23R
SOUTH BEND     CLEAR     35  33  92 E6        30.24R WCI  30
6HR MIN TEMP:  31; 6HR MAX TEMP:  37;

ELKHART*       CLEAR     36  32  87 E6        30.25R
GOSHEN         CLEAR     35  31  85 E6        30.24R FOG     WCI  30
6HR MIN TEMP:  33; 6HR MAX TEMP:  37;

MONTICELLO*    CLEAR     41  38  89 E7        30.21R
6HR MIN TEMP:  41; 6HR MAX TEMP:  46;

LOGANSPORT*    CLEAR     39  36  87 NE6       30.23R
ROCHESTER*     CLEAR     39  37  93 E6        30.24R
WARSAW*        CLEAR     34  32  93 E5        30.24R FOG     WCI  30
ANGOLA*        CLEAR     34  32  93 E5        30.23R WCI  30
FORT WAYNE     PTCLDY    35  32  88 NE8       30.23S WCI  29
6HR MIN TEMP:  35; 6HR MAX TEMP:  44;

HUNTINGTON*    PTCLDY    36  34  93 E5        30.22R
6HR MIN TEMP:  36; 6HR MAX TEMP:  44;

PERU/GRISSOM   CLEAR     40  40  99 E10       30.21R
6HR MIN TEMP:  40; 6HR MAX TEMP:  46;

MARION*        CLEAR     39  36  91 E8        30.21R FOG
6HR MIN TEMP:  26; 6HR MAX TEMP:  75;


$$
INZ028>050-291300-
CENTRAL INDIANA

CITY           SKY/WX    TMP DP  RH WIND       PRES   REMARKS
LAFAYETTE      CLOUDY    45  41  86 E12       30.20R
6HR MIN TEMP:  45; 6HR MAX TEMP:  46;

KOKOMO*        CLEAR     40  38  93 NE9       30.22R FOG
6HR MIN TEMP:  40; 6HR MAX TEMP:  47;

MUNCIE*        CLOUDY    43  39  86 E14       30.19S FOG
6HR MIN TEMP:  42; 6HR MAX TEMP:  47;

INDIANAPOLIS   DRIZZLE   47  42  83 E14       30.17R
6HR MIN TEMP:  47; 6HR MAX TEMP:  50; 6HR PCP: TRACE;


$$
MIZ043>046-050>051-056>058-064>065-071>073-077>080-291300-
SOUTHWEST LOWER MICHIGAN

CITY           SKY/WX    TMP DP  RH WIND       PRES   REMARKS
BATTLE CREEK   CLEAR     33  32  96 CALM      30.26S
6HR MIN TEMP:  30; 6HR MAX TEMP:  35;

BENTON HARBOR  CLEAR     30  28  92 E5        30.25R WCI  25
6HR MIN TEMP:  28; 6HR MAX TEMP:  31;

COLDWATER*     CLEAR     31  31 100 NE5       30.25R WCI  27
6HR MIN TEMP:  30; 6HR MAX TEMP:  33;

HILLSDALE*     CLEAR     32  30  93 E6        30.23S WCI  26
HOLLAND        CLEAR     32  30  92 E3        30.28R FOG
6HR MIN TEMP:  30; 6HR MAX TEMP:  32;

GRAND RAPIDS   PTCLDY    30  30 100 NE5       30.28R WCI  25
6HR MIN TEMP:  29; 6HR MAX TEMP:  36;

KALAMAZOO      CLEAR     30  29  96 CALM      30.26R
6HR MIN TEMP:  29; 6HR MAX TEMP:  35;

STURGIS*       CLEAR     33  32  97 NE5       30.24R WCI  28
6HR MIN TEMP:  31; 6HR MAX TEMP:  34;

THREE RIVERS*  FAIR      32  32  99 NE3       30.26R
6HR MIN TEMP:  29; 6HR MAX TEMP:  33;


$$
OHZ001>008-015>018-024>025-291300-
NORTHWEST OHIO

CITY           SKY/WX    TMP DP  RH WIND       PRES   REMARKS
WAUSEON*       FAIR      34  32  93 NE3       30.25S
DEFIANCE       CLEAR     34  31  88 NE5       30.25R WCI  30
6HR MIN TEMP:  33; 6HR MAX TEMP:  38;

FINDLAY        CLEAR     37  32  82 NE3       30.23R
6HR MIN TEMP:  36; 6HR MAX TEMP:  40;

TOLEDO EXPRESS CLEAR     31  31 100 CALM      30.26R
6HR MIN TEMP:  30; 6HR MAX TEMP:  35;

TOLEDO METCALF CLEAR     35  33  92 NE5       30.27R WCI  31
6HR MIN TEMP:  35; 6HR MAX TEMP:  39;

LIMA           CLOUDY    39  36  89 E12       30.22R
6HR MIN TEMP:  36; 6HR MAX TEMP:  44;


$$
AND FOR LAKE MICHIGAN COASTAL AND OPEN LAKE BUOY OBSERVATIONS

STATION/POSITION TEMP    WIND        PRES    VSBY  WAVE
                 AIR SEA DIR/SP/G                  HT/PER
                 (F)     (DEG/KT/KT) (MB)    (MI)  (FT/S)
CALUMET HARBOR    34      30/  5/  7 1023.7R
MICHIGAN CITY     36      50/  4/  5   N/A
BURNS HARBOR      36      50/  6/ 10 1024.7
SAINT JOSEPH      34      30/  2/  3 1024.4

$$
&&




USA.gov is the U.S. government's official web portal to all federal, state and local government web resources and services.